TimeEDT,TemperatureF,Dew PointF,Humidity,Sea Level PressureIn,VisibilityMPH,Wind Direction,Wind SpeedMPH,Gust SpeedMPH,PrecipitationIn,Events,Conditions,WindDirDegrees,DateUTC
12:53 AM,64.0,62.1,93,29.83,7.0,Calm,Calm,-,N/A,,Clear,0,2013-06-17 04:53:00
1:53 AM,62.1,61.0,96,29.84,5.0,Calm,Calm,-,N/A,,Clear,0,2013-06-17 05:53:00
2:53 AM,62.1,60.1,93,29.85,6.0,Calm,Calm,-,N/A,,Clear,0,2013-06-17 06:53:00
3:53 AM,60.1,59.0,96,29.86,4.0,Calm,Calm,-,N/A,,Clear,0,2013-06-17 07:53:00
4:53 AM,61.0,59.0,93,29.86,6.0,Calm,Calm,-,N/A,,Clear,0,2013-06-17 08:53:00
5:53 AM,62.1,61.0,96,29.87,4.0,Calm,Calm,-,N/A,,Clear,0,2013-06-17 09:53:00
6:53 AM,63.0,62.1,97,29.89,4.0,Calm,Calm,-,N/A,,Clear,0,2013-06-17 10:53:00
7:53 AM,68.0,64.0,87,29.90,9.0,West,4.6,-,N/A,,Clear,270,2013-06-17 11:53:00
8:53 AM,72.0,64.9,78,29.89,10.0,SW,6.9,-,N/A,,Clear,230,2013-06-17 12:53:00
9:53 AM,73.9,64.9,73,29.89,10.0,SW,8.1,-,N/A,,Clear,230,2013-06-17 13:53:00
10:53 AM,75.9,64.0,67,29.88,10.0,SW,9.2,-,N/A,,Clear,230,2013-06-17 14:53:00
11:53 AM,80.1,63.0,56,29.88,10.0,SW,8.1,17.3,N/A,,Clear,230,2013-06-17 15:53:00
12:53 PM,78.1,63.0,60,29.89,10.0,SSW,13.8,-,N/A,,Clear,200,2013-06-17 16:53:00
1:53 PM,78.1,64.0,62,29.88,10.0,SSW,9.2,-,N/A,,Clear,210,2013-06-17 17:53:00
2:53 PM,75.9,64.0,67,29.86,10.0,SSW,12.7,20.7,N/A,,Clear,200,2013-06-17 18:53:00
3:53 PM,72.0,63.0,73,29.85,9.0,SSW,9.2,-,N/A,,Clear,200,2013-06-17 19:53:00
4:53 PM,79.0,64.0,60,29.84,10.0,SW,15.0,25.3,N/A,,Clear,220,2013-06-17 20:53:00
5:53 PM,73.9,64.0,71,29.84,10.0,SW,9.2,17.3,N/A,,Scattered Clouds,230,2013-06-17 21:53:00
6:53 PM,70.0,63.0,78,29.86,8.0,West,3.5,-,N/A,,Clear,260,2013-06-17 22:53:00
7:53 PM,71.1,59.0,66,29.90,10.0,North,8.1,-,0.00,,Mostly Cloudy,10,2013-06-17 23:53:00
8:53 PM,66.9,61.0,81,29.90,10.0,ENE,4.6,-,0.00,,Mostly Cloudy,60,2013-06-18 00:53:00
9:53 PM,66.9,61.0,81,29.92,10.0,ESE,4.6,-,N/A,,Scattered Clouds,120,2013-06-18 01:53:00
10:53 PM,66.0,60.1,81,29.93,10.0,Calm,Calm,-,N/A,,Clear,0,2013-06-18 02:53:00
11:53 PM,63.0,61.0,93,29.93,9.0,Calm,Calm,-,N/A,,Clear,0,2013-06-18 03:53:00